Weather History for K7BM - February, 2013

Change the Weather History Date:

Thursday, February 14, 2013

  Actual Average Record
Temperature  
Mean Temperature 26 °F -  
Max Temperature 32 °F - - ()
Min Temperature 19 °F - - ()
Degree Days  
Heating Degree Days 40    
Moisture  
Dew Point 3 °F    
Average Humidity 39    
Maximum Humidity 63    
Minimum Humidity 21    
Precipitation  
Precipitation 0.00 in - - ()
Sea Level Pressure  
Sea Level Pressure 30.05 in    
Wind  
Wind Speed 8 mph (West)    
Max Wind Speed 23 mph    
Max Gust Speed 38 mph    
Visibility 10 miles    
Events      
T = Trace of Precipitation, MM = Missing Value Source: NWS Daily Summary

Daily Weather History Graph

Daily Weather History Graph

Search for Another Location

Airport or City:

Trip Planner

Search our weather history database for the weather conditions in past years. The results will help you decide how hot, cold, wet, or windy it might be!

Date:

Astronomy

Feb. 14, 2013 Rise Set
Actual Time 6:56 AM MST 5:41 PM MST
Civil Twilight 6:29 AM MST 6:09 PM MST
Nautical Twilight 5:58 AM MST 6:40 PM MST
Astronomical Twilight 5:27 AM MST 7:11 PM MST
Moon 9:03 AM MST (2/14) 10:43 PM MST (2/14)
Length of Visible Light 11h 39m
Length of Day
10h 45m
Waxing Crescent, 22% of the Moon is Illuminated
Feb 14
Waxing Crescent
Feb 17
First Quarter
Feb 25
Full
Mar 4
Last Quarter
Mar 11
New

Hourly Weather History & Observations

Time (MST) Temp. Windchill Dew Point Humidity Pressure Visibility Wind Dir Wind Speed Gust Speed Precip Events Conditions
12:16 AM 26.6 °F 14.7 °F -0.4 °F 31% 30.02 in 10.0 mi WSW 15.0 mph 25.3 mph N/A   Clear
12:36 AM 26.6 °F 20.0 °F -2.2 °F 29% 30.02 in 10.0 mi WNW 5.8 mph 20.7 mph N/A   Clear
12:56 AM 26.6 °F 18.2 °F -0.4 °F 31% 30.02 in 10.0 mi West 8.1 mph 20.7 mph N/A   Clear
1:16 AM 26.6 °F 20.0 °F -0.4 °F 31% 30.02 in 10.0 mi NW 5.8 mph 16.1 mph N/A   Clear
1:36 AM 26.6 °F 21.2 °F -0.4 °F 31% 30.01 in 10.0 mi WNW 4.6 mph - N/A   Clear
1:56 AM 24.8 °F 16.9 °F 1.4 °F 36% 30.02 in 10.0 mi WNW 6.9 mph - N/A   Clear
2:16 AM 26.6 °F 21.2 °F 1.4 °F 34% 30.01 in 10.0 mi West 4.6 mph - N/A   Clear
2:36 AM 23.0 °F 18.4 °F 5.0 °F 46% 30.00 in 10.0 mi NNW 3.5 mph - N/A   Clear
2:56 AM 24.8 °F 16.9 °F 3.2 °F 40% 30.00 in 10.0 mi NW 6.9 mph 19.6 mph N/A   Clear
3:16 AM 26.6 °F 14.7 °F 1.4 °F 34% 29.99 in 10.0 mi West 15.0 mph 20.7 mph N/A   Clear
3:35 AM 24.8 °F 20.5 °F 3.2 °F 40% 29.98 in 10.0 mi NNW 3.5 mph - N/A   Clear
3:56 AM 23.0 °F - 5.0 °F 46% 29.98 in 10.0 mi Calm Calm - N/A   Clear
4:16 AM 23.0 °F - 5.0 °F 46% 29.98 in 10.0 mi Calm Calm - N/A   Clear
4:36 AM 23.0 °F 17.0 °F 5.0 °F 46% 29.98 in 10.0 mi SE 4.6 mph - N/A   Clear
5:16 AM 23.0 °F - 5.0 °F 46% 29.99 in 10.0 mi Calm Calm - N/A   Clear
5:36 AM 26.6 °F 19.1 °F 5.0 °F 40% 29.99 in 10.0 mi West 6.9 mph 20.7 mph N/A   Clear
5:56 AM 24.8 °F 17.9 °F 6.8 °F 46% 30.00 in 10.0 mi ESE 5.8 mph 9.2 mph N/A   Clear
6:16 AM 21.2 °F 13.6 °F 6.8 °F 54% 30.00 in 10.0 mi SE 5.8 mph - N/A   Clear
6:36 AM 23.0 °F - 8.6 °F 54% 30.01 in 10.0 mi Calm Calm - N/A   Scattered Clouds
6:56 AM 23.0 °F 18.4 °F 10.4 °F 59% 30.01 in 10.0 mi NNW 3.5 mph - N/A   Overcast
7:16 AM 23.0 °F - 10.4 °F 59% 30.02 in 10.0 mi Calm Calm - N/A   Overcast
7:35 AM 23.0 °F 18.4 °F 12.2 °F 63% 30.02 in 10.0 mi NNE 3.5 mph - N/A   Scattered Clouds
7:56 AM 23.0 °F 15.8 °F 10.4 °F 59% 30.02 in 10.0 mi ESE 5.8 mph - N/A   Scattered Clouds
8:16 AM 23.0 °F - 10.4 °F 59% 30.02 in 10.0 mi Calm Calm - N/A   Scattered Clouds
8:36 AM 24.8 °F - 10.4 °F 54% 30.03 in 10.0 mi Calm Calm - N/A   Mostly Cloudy
8:56 AM 24.8 °F - 12.2 °F 59% 30.04 in 10.0 mi Calm Calm - N/A   Mostly Cloudy
9:15 AM 28.4 °F 24.6 °F 8.6 °F 43% 30.05 in 10.0 mi WSW 3.5 mph - N/A   Overcast
9:36 AM 28.4 °F 19.7 °F 5.0 °F 37% 30.06 in 10.0 mi West 9.2 mph - N/A   Overcast
9:56 AM 28.4 °F 19.7 °F 5.0 °F 37% 30.05 in 10.0 mi WSW 9.2 mph 18.4 mph N/A   Overcast
10:16 AM 28.4 °F 19.1 °F 5.0 °F 37% 30.05 in 10.0 mi West 10.4 mph 17.3 mph N/A   Overcast
10:36 AM 26.6 °F 20.0 °F 3.2 °F 37% 30.06 in 10.0 mi WSW 5.8 mph 16.1 mph N/A   Overcast
10:56 AM 28.4 °F - 3.2 °F 34% 30.06 in 10.0 mi Calm Calm - N/A   Overcast
11:16 AM 30.2 °F 25.4 °F 3.2 °F 32% 30.06 in 10.0 mi West 4.6 mph - N/A   Overcast
11:36 AM 30.2 °F 21.3 °F 3.2 °F 32% 30.06 in 10.0 mi West 10.4 mph 19.6 mph N/A   Overcast
11:55 AM 30.2 °F 21.9 °F 3.2 °F 32% 30.06 in 10.0 mi West 9.2 mph - N/A   Mostly Cloudy
12:15 PM 32.0 °F 24.2 °F 3.2 °F 30% 30.06 in 10.0 mi WSW 9.2 mph 18.4 mph N/A   Mostly Cloudy
12:36 PM 30.2 °F 25.4 °F 1.4 °F 29% 30.06 in 10.0 mi West 4.6 mph - N/A   Overcast
12:55 PM 32.0 °F 28.7 °F 3.2 °F 30% 30.06 in 10.0 mi SSE 3.5 mph - N/A   Overcast
1:16 PM 32.0 °F - 6.8 °F 35% 30.06 in 10.0 mi Calm Calm - N/A   Overcast
1:36 PM 32.0 °F 23.6 °F 1.4 °F 27% 30.05 in 10.0 mi West 10.4 mph 17.3 mph N/A   Overcast
1:56 PM 32.0 °F 22.5 °F 1.4 °F 27% 30.05 in 10.0 mi WSW 12.7 mph 24.2 mph N/A   Overcast
2:15 PM 30.2 °F 21.3 °F 1.4 °F 29% 30.05 in 10.0 mi WSW 10.4 mph 23.0 mph N/A   Scattered Clouds
2:36 PM 30.2 °F 20.2 °F -0.4 °F 27% 30.05 in 10.0 mi West 12.7 mph 28.8 mph N/A   Scattered Clouds
2:56 PM 30.2 °F 18.5 °F -4.0 °F 23% 30.05 in 10.0 mi West 17.3 mph 38.0 mph N/A   Clear
3:16 PM 30.2 °F 18.9 °F -4.0 °F 23% 30.06 in 10.0 mi West 16.1 mph 27.6 mph N/A   Clear
3:36 PM 30.2 °F 17.4 °F -5.8 °F 21% 30.07 in 10.0 mi West 20.7 mph 28.8 mph N/A   Clear
3:56 PM 30.2 °F 17.8 °F -5.8 °F 21% 30.07 in 10.0 mi West 19.6 mph 28.8 mph N/A   Clear
4:16 PM 30.2 °F 19.3 °F -4.0 °F 23% 30.08 in 10.0 mi WSW 15.0 mph 29.9 mph N/A   Clear
4:36 PM 28.4 °F 16.6 °F -5.8 °F 23% 30.08 in 10.0 mi West 16.1 mph 32.2 mph N/A   Clear
4:56 PM 28.4 °F 15.8 °F -4.0 °F 25% 30.08 in 10.0 mi West 18.4 mph 26.5 mph N/A   Clear
5:16 PM 26.6 °F 13.1 °F -4.0 °F 26% 30.09 in 10.0 mi West 19.6 mph 33.4 mph N/A   Clear
5:36 PM 26.6 °F 12.0 °F -0.4 °F 31% 30.09 in 10.0 mi West 23.0 mph 33.4 mph N/A   Clear
5:56 PM 26.6 °F 13.1 °F -0.4 °F 31% 30.09 in 10.0 mi West 19.6 mph 31.1 mph N/A   Clear
6:16 PM 24.8 °F 11.5 °F -5.8 °F 26% 30.10 in 10.0 mi West 17.3 mph 27.6 mph N/A   Clear
6:36 PM 24.8 °F 11.1 °F -4.0 °F 28% 30.10 in 10.0 mi West 18.4 mph 26.5 mph N/A   Clear
6:56 PM 23.0 °F 8.3 °F -2.2 °F 33% 30.10 in 10.0 mi West 19.6 mph 27.6 mph N/A   Clear
7:16 PM 23.0 °F 8.0 °F -2.2 °F 33% 30.11 in 10.0 mi West 20.7 mph 31.1 mph N/A   Clear
7:36 PM 23.0 °F 8.3 °F 1.4 °F 39% 30.11 in 10.0 mi WSW 19.6 mph 31.1 mph N/A   Clear
7:55 PM 23.0 °F 8.7 °F 1.4 °F 39% 30.11 in 10.0 mi West 18.4 mph 29.9 mph N/A   Clear
8:15 PM 23.0 °F 11.1 °F 1.4 °F 39% 30.11 in 10.0 mi West 12.7 mph 23.0 mph N/A   Clear
8:35 PM 21.2 °F 6.8 °F 1.4 °F 42% 30.10 in 10.0 mi WSW 17.3 mph 27.6 mph N/A   Clear
8:56 PM 21.2 °F 10.1 °F 3.2 °F 46% 30.11 in 10.0 mi West 10.4 mph 28.8 mph N/A   Clear
9:16 PM 21.2 °F 9.5 °F 3.2 °F 46% 30.11 in 10.0 mi WSW 11.5 mph 18.4 mph N/A   Clear
9:36 PM 21.2 °F 7.8 °F 3.2 °F 46% 30.11 in 10.0 mi SW 15.0 mph 31.1 mph N/A   Clear
9:56 PM 21.2 °F 10.9 °F 3.2 °F 46% 30.12 in 10.0 mi West 9.2 mph 26.5 mph N/A   Clear
10:16 PM 19.4 °F - 3.2 °F 49% 30.12 in 10.0 mi Calm Calm - N/A   Scattered Clouds
10:36 PM 19.4 °F 14.3 °F 3.2 °F 49% 30.12 in 10.0 mi NNW 3.5 mph - N/A   Clear
10:56 PM 19.4 °F 9.5 °F 3.2 °F 49% 30.11 in 10.0 mi NW 8.1 mph - N/A   Clear
11:15 PM 19.4 °F 10.4 °F 3.2 °F 49% 30.12 in 10.0 mi NNW 6.9 mph - N/A   Clear
11:36 PM 19.4 °F 9.5 °F 5.0 °F 54% 30.12 in 10.0 mi NNW 8.1 mph 26.5 mph N/A   Scattered Clouds
11:55 PM 19.4 °F 12.8 °F 6.8 °F 58% 30.12 in 10.0 mi North 4.6 mph 18.4 mph N/A   Overcast